RRR6104 LMML-LXGB

Flight info

Callsign RRR6104
Flight time N/A
Altitude 30000
Route GZO M732 UPLIT/N0458F360 DCT SENTI M732 MEGAN DCT TABOT/N0456F370 DCT MAMOM T100 GOSOS DCT PIMOS
Aircraft C17/H-SDFGHIJ5KM1RTUWXY/LB1D1

Departure

Time 2026-05-04 16:23
Airport Malta International Airport (LMML)

Arrival

Time N/A
Airport Gibraltar Airport (LXGB)
Time Latitude Longitude Altitude Speed Heading
2026-05-04 15:55 35.85444 14.46667 257 ft 0 kts
2026-05-04 16:20 35.85446 14.46668 258 ft 1 kts 18°
2026-05-04 16:20 35.85397 14.46777 257 ft 11 kts 105°
2026-05-04 16:21 35.85609 14.47174 253 ft 23 kts 53°
2026-05-04 16:22 35.85661 14.47529 250 ft 20 kts 81°
2026-05-04 16:22 35.85618 14.47918 267 ft 25 kts 135°
2026-05-04 16:23 35.83658 14.50327 1605 ft 212 kts 136°
2026-05-04 16:24 35.77887 14.49471 4441 ft 300 kts 237°
2026-05-04 16:25 35.76162 14.45273 4451 ft 235 kts 242°
2026-05-04 16:26 35.76229 14.36880 4552 ft 315 kts 322°
2026-05-04 16:26 35.82000 14.34437 4839 ft 267 kts 342°
2026-05-04 16:27 35.85345 14.32412 4919 ft 267 kts 329°
2026-05-04 16:28 35.90254 14.29221 5651 ft 267 kts 332°
2026-05-04 16:28 35.95182 14.26041 7193 ft 270 kts 332°
2026-05-04 16:29 36.01903 14.21710 9274 ft 278 kts 332°
2026-05-04 16:30 36.06983 14.18111 10785 ft 283 kts 314°
2026-05-04 16:31 36.09218 14.14124 11802 ft 286 kts 305°
2026-05-04 16:31 36.13091 14.08509 13382 ft 288 kts 309°
2026-05-04 16:32 36.16980 14.02770 14919 ft 293 kts 310°
2026-05-04 16:33 36.19620 13.98897 15930 ft 297 kts 310°
2026-05-04 16:33 36.22313 13.94939 16982 ft 303 kts 310°
2026-05-04 16:34 36.25024 13.90949 18057 ft 305 kts 310°
2026-05-04 16:34 36.26388 13.88942 18575 ft 305 kts 310°
2026-05-04 16:35 36.30542 13.82816 20049 ft 314 kts 309°
2026-05-04 16:35 36.34784 13.76548 21587 ft 321 kts 309°
2026-05-04 16:36 36.36223 13.74420 22126 ft 322 kts 309°
2026-05-04 16:36 36.39119 13.70132 23223 ft 328 kts 309°
2026-05-04 16:37 36.42068 13.65761 24252 ft 331 kts 309°
2026-05-04 16:37 36.43548 13.63565 24720 ft 333 kts 309°
2026-05-04 16:37 36.46535 13.59162 25710 ft 335 kts 309°
2026-05-04 16:38 36.49593 13.54746 26736 ft 341 kts 309°
2026-05-04 16:39 36.54289 13.47901 28189 ft 353 kts 309°
2026-05-04 16:39 36.57485 13.43232 29265 ft 358 kts 309°
2026-05-04 16:40 36.60735 13.38486 30399 ft 362 kts 309°
2026-05-04 16:40 36.63882 13.33888 31368 ft 329 kts 309°
2026-05-04 16:41 36.66917 13.29430 32428 ft 349 kts 309°
2026-05-04 16:41 36.71737 13.22358 34128 ft 373 kts 308°
2026-05-04 16:42 36.77164 13.14377 35510 ft 423 kts 308°
2026-05-04 16:43 36.80947 13.08805 36063 ft 415 kts 308°
2026-05-04 16:43 36.86574 13.00492 36114 ft 412 kts 308°
2026-05-04 16:45 36.97708 12.83981 36113 ft 414 kts 308°
2026-05-04 16:46 37.06990 12.70156 36127 ft 416 kts 307°
2026-05-04 16:47 37.14399 12.59081 36126 ft 415 kts 307°
2026-05-04 16:48 37.21810 12.47976 36115 ft 414 kts 307°
2026-05-04 16:49 37.29206 12.36858 36117 ft 414 kts 307°
2026-05-04 16:50 37.36584 12.25732 36116 ft 415 kts 307°
2026-05-04 16:51 37.42122 12.17356 36103 ft 416 kts 307°
2026-05-04 16:52 37.49501 12.06161 36105 ft 415 kts 307°
2026-05-04 16:53 37.54728 11.97493 36101 ft 411 kts 296°
2026-05-04 16:54 37.60153 11.84811 36093 ft 413 kts 297°
2026-05-04 16:55 37.68303 11.65690 36090 ft 411 kts 296°
2026-05-04 16:56 37.75043 11.49794 36085 ft 411 kts 296°
2026-05-04 16:57 37.79084 11.40225 36081 ft 412 kts 296°
2026-05-04 16:58 37.84466 11.27434 36069 ft 413 kts 295°
2026-05-04 17:00 37.92565 11.08092 36072 ft 415 kts 295°
2026-05-04 17:01 37.99259 10.92016 36068 ft 415 kts 295°
2026-05-04 17:02 38.04618 10.79085 36064 ft 414 kts 295°
2026-05-04 17:03 38.08628 10.69376 36062 ft 413 kts 295°
2026-05-04 17:03 38.12623 10.59672 36064 ft 414 kts 295°
2026-05-04 17:04 38.17956 10.46672 36062 ft 415 kts 295°
2026-05-04 17:05 38.23253 10.33703 36059 ft 414 kts 295°
2026-05-04 17:06 38.27231 10.23931 36059 ft 414 kts 295°
2026-05-04 17:07 38.30316 10.16329 36054 ft 412 kts 294°
2026-05-04 17:07 38.33359 10.08815 36051 ft 412 kts 294°
2026-05-04 17:08 38.37291 9.99077 36055 ft 411 kts 294°
2026-05-04 17:09 38.39906 9.92584 36050 ft 412 kts 294°
2026-05-04 17:09 38.42508 9.86110 36053 ft 412 kts 294°
2026-05-04 17:10 38.48975 9.69956 36071 ft 410 kts 293°
2026-05-04 17:11 38.51553 9.63499 36051 ft 409 kts 294°
2026-05-04 17:12 38.55421 9.53777 36056 ft 410 kts 293°
2026-05-04 17:13 38.61847 9.37558 36063 ft 409 kts 293°
2026-05-04 17:14 38.66972 9.24563 36061 ft 408 kts 293°
2026-05-04 17:15 38.70808 9.14800 36064 ft 409 kts 293°
2026-05-04 17:16 38.75897 9.01797 36059 ft 412 kts 292°
2026-05-04 17:17 38.81005 8.88695 36062 ft 412 kts 292°
2026-05-04 17:18 38.86102 8.75559 36062 ft 411 kts 292°
2026-05-04 17:19 38.91182 8.62418 36065 ft 412 kts 292°
2026-05-04 17:20 38.96259 8.49218 36059 ft 413 kts 292°
2026-05-04 17:20 39.00060 8.39302 36057 ft 412 kts 292°
2026-05-04 17:21 39.05129 8.26026 36060 ft 414 kts 291°
2026-05-04 17:22 39.07667 8.19357 36051 ft 414 kts 291°
2026-05-04 17:23 39.12729 8.06011 36043 ft 415 kts 291°
2026-05-04 17:23 39.14855 7.99176 36044 ft 408 kts 278°
2026-05-04 17:24 39.15162 7.95560 36056 ft 405 kts 270°
2026-05-04 17:25 39.15631 7.81051 36042 ft 405 kts 270°
2026-05-04 17:26 39.16092 7.66493 36038 ft 406 kts 270°
2026-05-04 17:27 39.16645 7.48269 36039 ft 408 kts 270°
2026-05-04 17:28 39.17068 7.33664 36037 ft 409 kts 270°
2026-05-04 17:29 39.17669 7.11736 36031 ft 408 kts 270°
2026-05-04 17:31 39.18138 6.93469 36032 ft 408 kts 269°
2026-05-04 17:32 39.18577 6.75219 36031 ft 409 kts 269°
2026-05-04 17:33 39.18909 6.60571 36023 ft 410 kts 269°
2026-05-04 17:34 39.19222 6.45960 36025 ft 409 kts 269°
2026-05-04 17:35 39.19589 6.27637 36016 ft 409 kts 269°
2026-05-04 17:36 39.19728 6.20294 36013 ft 410 kts 269°
2026-05-04 17:36 39.19863 6.12964 36010 ft 408 kts 269°
2026-05-04 17:37 39.19992 6.05642 36006 ft 409 kts 268°
2026-05-04 17:37 39.20116 5.98387 36004 ft 406 kts 268°
2026-05-04 17:38 39.20235 5.91077 36011 ft 409 kts 268°
2026-05-04 17:38 39.20351 5.83759 35997 ft 408 kts 268°
2026-05-04 17:39 39.20514 5.72905 35993 ft 409 kts 268°
2026-05-04 17:39 39.20619 5.65581 36006 ft 406 kts 268°
2026-05-04 17:40 39.20670 5.62039 35992 ft 383 kts 268°
2026-05-04 17:40 39.20718 5.58705 35970 ft 363 kts 268°
2026-05-04 17:40 39.20794 5.52091 35990 ft 377 kts 268°
2026-05-04 17:41 39.20885 5.45339 35999 ft 374 kts 268°
2026-05-04 17:41 39.20962 5.38623 35997 ft 376 kts 268°
2026-05-04 17:42 39.21039 5.31919 36010 ft 376 kts 268°
2026-05-04 17:42 39.21112 5.25190 35992 ft 372 kts 268°
2026-05-04 17:43 39.21178 5.18531 35996 ft 375 kts 268°
2026-05-04 17:43 39.21244 5.11823 35996 ft 373 kts 267°
2026-05-04 17:44 39.21303 5.05131 35990 ft 374 kts 267°
2026-05-04 17:44 39.21361 4.98410 35996 ft 374 kts 267°
2026-05-04 17:45 39.21414 4.91743 35984 ft 372 kts 267°
2026-05-04 17:45 39.21462 4.85097 35974 ft 371 kts 267°
2026-05-04 17:46 39.21507 4.78425 35977 ft 372 kts 267°
2026-05-04 17:46 39.21549 4.71767 35971 ft 370 kts 267°
2026-05-04 17:47 39.21585 4.65156 35976 ft 372 kts 267°
2026-05-04 17:47 39.21619 4.58486 35976 ft 371 kts 267°
2026-05-04 17:48 39.21650 4.51856 35981 ft 368 kts 266°
2026-05-04 17:48 39.21674 4.45257 35981 ft 369 kts 266°
2026-05-04 17:49 39.21697 4.38622 35987 ft 369 kts 266°
2026-05-04 17:49 39.21716 4.32013 35984 ft 368 kts 266°
2026-05-04 17:50 39.21730 4.25393 35982 ft 370 kts 266°
2026-05-04 17:50 39.21742 4.18778 35993 ft 368 kts 266°
2026-05-04 17:51 39.21576 4.12248 35982 ft 361 kts 257°
2026-05-04 17:51 39.20915 4.09171 36358 ft 357 kts 248°
2026-05-04 17:51 39.19792 4.06260 36777 ft 369 kts 239°
2026-05-04 17:52 39.18220 4.03577 36969 ft 380 kts 233°
2026-05-04 17:52 39.16521 4.00976 36978 ft 377 kts 232°
2026-05-04 17:52 39.13200 3.95840 36969 ft 371 kts 233°
2026-05-04 17:53 39.09905 3.90745 36969 ft 375 kts 233°
2026-05-04 17:53 39.06577 3.85615 36969 ft 372 kts 233°
2026-05-04 17:54 39.03258 3.80501 36990 ft 375 kts 233°
2026-05-04 17:54 38.99933 3.75394 36973 ft 363 kts 233°
2026-05-04 17:55 38.96751 3.70505 36978 ft 358 kts 233°
2026-05-04 17:55 38.93513 3.65542 36983 ft 363 kts 233°
2026-05-04 17:56 38.90824 3.61429 36981 ft 360 kts 233°
2026-05-04 17:56 38.87600 3.56500 36981 ft 362 kts 233°
2026-05-04 17:57 38.84357 3.51553 36987 ft 361 kts 233°
2026-05-04 17:57 38.81129 3.46634 36974 ft 361 kts 233°
2026-05-04 17:58 38.77882 3.41694 36980 ft 362 kts 233°
2026-05-04 17:58 38.74642 3.36773 36977 ft 360 kts 233°
2026-05-04 17:59 38.71401 3.31858 36976 ft 362 kts 233°
2026-05-04 18:00 38.66530 3.24487 36978 ft 360 kts 232°
2026-05-04 18:00 38.63305 3.19613 36975 ft 361 kts 232°
2026-05-04 18:01 38.60054 3.14710 36983 ft 361 kts 232°
2026-05-04 18:01 38.56815 3.09835 36976 ft 359 kts 232°
2026-05-04 18:02 38.51940 3.02510 36980 ft 362 kts 232°
2026-05-04 18:02 38.48677 2.97618 36980 ft 362 kts 232°
2026-05-04 18:03 38.45415 2.92734 36981 ft 361 kts 232°
2026-05-04 18:03 38.42152 2.87857 36982 ft 361 kts 232°
2026-05-04 18:04 38.38885 2.82981 36986 ft 362 kts 232°
2026-05-04 18:05 38.33980 2.75671 36986 ft 361 kts 232°
2026-05-04 18:05 38.30715 2.70814 36980 ft 361 kts 232°
2026-05-04 18:06 38.25802 2.63520 36978 ft 360 kts 232°
2026-05-04 18:06 38.22575 2.58738 36978 ft 360 kts 232°